period_start,C,m1,H,J0,J1,J2,J3,J4,J5,JA,JB,JC,JD,JJ,JK,JN,#
2016-01-01 00:04:05,0.09,0.00,0.00,18.42,21.76,25.66,14.98,50.42,1021.94,2056.01,3589.71,3188.72,3592.91,600.52,609.05,0.02,0000 0000 0000 0000 000000
2016-01-01 00:09:06,0.10,0.00,0.00,18.40,21.74,25.68,14.88,50.23,1021.63,2056.01,3583.82,3184.64,3588.39,600.27,608.67,0.07,0000 0000 0000 0000 000000
2016-01-01 00:14:08,0.11,0.01,0.00,18.38,21.72,25.68,14.81,50.04,1021.53,2056.01,3580.05,3182.25,3585.43,599.78,608.15,0.12,0000 0000 0000 0000 000000
2016-01-01 00:19:09,0.13,0.02,0.00,18.35,21.72,25.63,14.82,50.11,1021.50,2056.01,3576.44,3180.00,3582.79,599.80,608.41,0.17,0000 0000 0000 0000 000000
2016-01-01 00:24:10,0.14,0.03,0.00,18.31,21.69,25.57,14.89,50.18,1021.50,2056.02,3572.91,3177.68,3580.03,599.96,608.50,0.22,0000 0000 0000 0000 000000
2016-01-01 00:29:11,0.15,0.03,0.00,18.30,21.69,25.62,14.88,50.08,1021.50,2056.01,3569.38,3175.44,3577.26,600.16,608.65,0.27,0000 0000 0000 0000 000000
2016-01-01 00:34:13,0.15,0.04,0.00,18.26,21.67,25.65,14.90,50.08,1021.54,2056.02,3565.82,3173.10,3574.43,600.01,608.66,0.32,0000 0000 0000 0000 000000
2016-01-01 00:39:14,0.16,0.05,0.00,18.22,21.66,25.56,14.94,49.98,1021.74,2056.06,3562.16,3170.66,3571.49,600.18,609.13,0.37,0000 0000 0000 0000 000000
2016-01-01 00:44:15,0.16,0.06,0.00,18.19,21.64,25.62,14.82,49.89,1021.98,2056.09,3558.40,3168.22,3568.40,600.02,608.96,0.42,0000 0000 0000 0000 000000
2016-01-01 00:49:16,0.16,0.07,0.00,18.20,21.63,25.56,14.90,49.80,1021.99,2056.16,3554.80,3165.85,3565.50,600.11,609.17,0.47,0000 0000 0000 0000 000000
2016-01-01 00:54:18,0.19,0.08,0.00,18.20,21.62,25.55,14.88,49.77,1021.99,2056.46,3551.22,3163.49,3562.64,599.78,608.92,0.52,0000 0000 0000 0000 000000
2016-01-01 00:59:19,0.17,0.08,0.00,18.19,21.61,25.51,14.85,49.95,1021.90,2056.61,3547.60,3161.16,3559.72,599.79,608.72,0.57,0000 0000 0000 0000 000000
2016-01-01 01:04:20,0.16,0.09,0.00,18.16,21.59,25.56,14.89,49.92,1021.63,2056.80,3544.09,3158.85,3556.83,599.79,608.90,0.62,0000 0000 0000 0000 000000
2016-01-01 01:09:21,0.16,0.10,0.00,18.14,21.59,25.54,14.87,49.86,1021.58,2056.94,3540.58,3156.54,3554.03,600.09,609.02,0.67,0000 0000 0000 0000 000000
2016-01-01 01:14:23,0.16,0.11,0.00,18.12,21.57,25.49,14.85,49.86,1021.93,2056.98,3536.95,3154.20,3551.18,599.62,608.78,0.72,0000 0000 0000 0000 000000
2016-01-01 01:19:24,0.16,0.12,0.00,18.14,21.57,25.46,14.84,50.02,1021.89,2056.98,3533.23,3151.81,3548.16,599.78,608.88,0.77,0000 0000 0000 0000 000000
2016-01-01 01:24:26,0.15,0.13,0.00,18.12,21.55,25.45,14.94,50.00,1021.74,2056.98,3529.69,3149.43,3545.23,600.02,609.05,0.82,0000 0000 0000 0000 000000
2016-01-01 01:29:27,0.16,0.14,0.00,18.09,21.54,25.48,14.85,49.88,1021.61,2056.98,3526.09,3147.06,3542.29,599.91,609.02,0.87,0000 0000 0000 0000 000000
2016-01-01 01:34:28,0.15,0.14,0.00,18.08,21.54,25.42,14.97,50.08,1021.51,2056.99,3522.46,3144.66,3539.28,600.43,609.48,0.92,0000 0000 0000 0000 000000
2016-01-01 01:39:29,0.15,0.15,0.00,18.05,21.52,25.44,14.96,50.17,1021.51,2056.98,3519.02,3142.30,3536.37,600.05,609.22,0.97,0000 0000 0000 0000 000000
2016-01-01 01:44:31,0.16,0.16,0.00,18.03,21.52,25.40,14.90,50.33,1021.47,2056.97,3515.32,3139.81,3533.33,599.79,608.94,1.02,0000 0000 0000 0000 000000
2016-01-01 01:49:32,0.16,0.17,0.00,18.02,21.50,25.40,14.78,50.20,1021.40,2056.99,3511.57,3137.34,3530.26,599.59,608.67,1.07,0000 0000 0000 0000 000000
2016-01-01 01:54:33,0.17,0.18,0.00,17.99,21.49,25.35,14.97,50.39,1021.10,2056.99,3507.64,3134.85,3527.06,600.06,609.02,1.12,0000 0000 0000 0000 000000
2016-01-01 01:59:34,0.18,0.19,0.00,17.97,21.48,25.28,14.91,50.61,1020.73,2056.99,3503.68,3132.13,3523.66,600.11,608.85,1.17,0000 0000 0000 0000 000000
2016-01-01 02:04:36,0.16,0.19,0.00,17.93,21.47,25.34,14.90,50.28,1020.55,2056.99,3499.93,3129.58,3520.56,599.91,608.67,1.22,0000 0000 0000 0000 000000
2016-01-01 02:09:37,0.18,0.20,0.00,17.90,21.44,25.31,14.80,50.03,1020.56,2056.99,3496.18,3126.88,3517.43,599.66,608.47,1.27,0000 0000 0000 0000 000000
2016-01-01 02:14:38,0.15,0.21,0.00,17.87,21.44,25.24,14.83,50.10,1020.58,2056.99,3492.53,3124.32,3514.34,600.06,608.95,1.33,0000 0000 0000 0000 000000
2016-01-01 02:19:39,0.14,0.22,0.00,17.86,21.42,25.25,14.87,49.98,1020.60,2056.99,3489.23,3122.14,3511.55,600.00,608.96,1.38,0000 0000 0000 0000 000000
2016-01-01 02:24:41,0.14,0.23,0.00,17.86,21.40,25.23,14.92,49.93,1020.59,2057.02,3485.93,3119.94,3508.91,600.11,609.06,1.43,0000 0000 0000 0000 000000
2016-01-01 02:29:42,0.15,0.23,0.00,17.88,21.39,25.21,14.86,49.93,1020.67,2057.02,3482.54,3117.70,3506.19,599.78,608.67,1.48,0000 0000 0000 0000 000000
2016-01-01 02:34:43,0.14,0.24,0.00,17.88,21.37,25.23,14.95,50.02,1020.55,2057.03,3479.16,3115.44,3503.46,600.12,608.97,1.53,0000 0000 0000 0000 000000
2016-01-01 02:39:44,0.15,0.25,0.00,17.88,21.35,25.20,14.86,50.03,1020.52,2057.08,3475.73,3113.27,3500.85,600.00,608.87,1.58,0000 0000 0000 0000 000000
2016-01-01 02:44:46,0.16,0.26,0.00,17.87,21.34,25.27,14.89,50.04,1020.51,2057.19,3472.29,3111.01,3498.05,599.84,608.72,1.63,0000 0000 0000 0000 000000
2016-01-01 02:49:47,0.18,0.27,0.00,17.85,21.33,25.20,14.86,50.17,1020.52,2057.49,3468.91,3108.83,3495.35,599.88,608.78,1.68,0000 0000 0000 0000 000000
2016-01-01 02:54:48,0.17,0.27,0.00,17.87,21.32,25.17,14.84,49.92,1020.52,2057.80,3465.49,3106.61,3492.60,599.82,608.63,1.73,0000 0000 0000 0000 000000
2016-01-01 02:59:49,0.16,0.28,0.00,17.87,21.30,25.22,14.81,50.06,1020.51,2057.92,3461.99,3104.33,3489.85,599.67,608.63,1.78,0000 0000 0000 0000 000000
2016-01-01 03:04:51,0.16,0.29,0.00,17.85,21.29,25.21,14.83,50.10,1020.49,2057.96,3458.54,3102.00,3487.00,599.68,608.54,1.83,0000 0000 0000 0000 000000
2016-01-01 03:09:52,0.15,0.30,0.00,17.84,21.29,25.18,14.98,50.20,1020.47,2057.99,3455.07,3099.68,3484.07,600.26,609.17,1.88,0000 0000 0000 0000 000000
2016-01-01 03:14:53,0.17,0.31,0.00,17.84,21.29,25.15,14.81,50.33,1020.10,2057.97,3451.37,3097.16,3480.98,599.91,608.73,1.93,0000 0000 0000 0000 000000
2016-01-01 03:19:54,0.18,0.32,0.00,17.82,21.27,25.13,14.80,50.28,1020.03,2057.98,3447.43,3094.45,3477.72,599.99,608.63,1.98,0000 0000 0000 0000 000000
2016-01-01 03:24:55,0.20,0.33,0.00,17.80,21.27,25.14,14.88,50.25,1019.96,2057.99,3443.16,3091.38,3473.98,600.13,608.79,2.03,0000 0000 0000 0000 000000
2016-01-01 03:29:57,0.18,0.34,0.00,17.79,21.26,25.15,14.92,50.37,1019.87,2057.99,3439.10,3088.58,3470.56,600.19,608.91,2.08,0000 0000 0000 0000 000000
2016-01-01 03:34:58,0.18,0.35,0.00,17.75,21.24,25.11,14.89,50.27,1019.85,2057.99,3435.17,3085.94,3467.26,599.92,608.59,2.13,0000 0000 0000 0000 000000
2016-01-01 03:39:59,0.18,0.35,0.00,17.73,21.24,25.02,14.90,50.23,1020.01,2057.99,3431.16,3083.27,3464.01,599.91,608.82,2.18,0000 0000 0000 0000 000000
2016-01-01 03:45:00,0.17,0.36,0.00,17.73,21.22,25.01,14.87,50.37,1019.62,2057.99,3427.32,3080.64,3460.77,599.83,608.49,2.23,0000 0000 0000 0000 000000
2016-01-01 03:50:01,0.21,0.37,0.00,17.71,21.21,25.01,14.91,50.50,1019.43,2057.99,3423.08,3077.69,3457.23,599.99,608.55,2.28,0000 0000 0000 0000 000000
2016-01-01 03:55:02,0.18,0.38,0.00,17.67,21.19,24.89,14.89,50.46,1019.36,2057.99,3418.98,3074.86,3453.78,600.10,608.68,2.33,0000 0000 0000 0000 000000
2016-01-01 04:00:03,0.20,0.39,0.00,17.65,21.19,24.96,14.88,50.44,1019.08,2058.00,3414.90,3072.08,3450.39,599.82,608.24,2.38,0000 0000 0000 0000 000000
2016-01-01 04:05:05,0.17,0.40,0.00,17.61,21.17,24.84,14.83,50.52,1019.06,2058.01,3410.86,3069.45,3447.05,600.15,608.74,2.43,0000 0000 0000 0000 000000
2016-01-01 04:10:05,0.21,0.41,0.00,17.57,21.15,24.88,14.84,50.39,1019.02,2058.04,3406.69,3066.36,3443.39,600.17,608.80,2.48,0000 0000 0000 0000 000000
2016-01-01 04:15:07,0.20,0.42,0.00,17.56,21.14,24.84,14.84,50.46,1019.06,2058.17,3402.60,3063.45,3439.83,600.03,608.67,2.53,0000 0000 0000 0000 000000
2016-01-01 04:20:08,0.19,0.43,0.00,17.51,21.12,24.81,14.93,50.57,1019.06,2058.25,3398.40,3060.58,3436.15,600.30,609.05,2.58,0000 0000 0000 0000 000000
2016-01-01 04:25:09,0.21,0.44,0.00,17.50,21.10,24.92,14.92,50.52,1019.06,2058.38,3394.23,3057.64,3432.59,600.01,608.62,2.63,0000 0000 0000 0000 000000
2016-01-01 04:30:10,0.23,0.46,0.00,17.49,21.09,24.90,14.99,50.55,1019.02,2058.87,3390.26,3054.87,3429.10,600.50,609.26,2.68,0000 0000 0000 0000 000000
2016-01-01 04:35:11,0.21,0.47,0.00,17.48,21.07,24.83,14.91,50.67,1018.71,2058.96,3386.05,3051.75,3425.46,600.48,609.11,2.73,0000 0000 0000 0000 000000
2016-01-01 04:40:12,0.21,0.48,0.00,17.46,21.06,24.87,14.87,50.73,1018.58,2058.98,3381.87,3048.62,3421.63,600.00,608.64,2.78,0000 0000 0000 0000 000000
2016-01-01 04:45:13,0.23,0.49,0.00,17.44,21.04,24.75,14.88,50.80,1018.56,2058.97,3377.36,3045.25,3417.43,600.09,608.71,2.83,0000 0000 0000 0000 000000
2016-01-01 04:50:15,0.20,0.50,0.00,17.42,21.02,24.80,14.90,50.67,1018.54,2058.98,3373.26,3042.22,3413.84,600.16,608.76,2.88,0000 0000 0000 0000 000000
2016-01-01 04:55:17,0.20,0.51,0.00,17.42,21.01,24.76,14.95,50.63,1018.57,2058.99,3369.04,3039.09,3410.05,600.39,609.00,2.93,0000 0000 0000 0000 000000
2016-01-01 05:00:18,0.20,0.52,0.00,17.42,20.99,24.75,14.83,50.66,1018.16,2058.99,3364.94,3036.15,3406.60,599.96,608.33,2.98,0000 0000 0000 0000 000000
2016-01-01 05:05:19,0.25,0.53,0.00,17.42,20.98,24.78,14.93,50.77,1017.87,2058.99,3359.95,3032.37,3401.99,599.93,608.04,3.03,0000 0000 0000 0000 000000
2016-01-01 05:10:20,0.24,0.55,0.00,17.42,20.97,24.80,14.97,50.86,1017.96,2059.00,3355.25,3028.63,3397.42,600.22,608.48,3.08,0000 0000 0000 0000 000000
2016-01-01 05:15:22,0.21,0.56,0.00,17.41,20.95,24.77,14.83,50.76,1017.87,2059.01,3351.20,3025.43,3393.62,600.05,608.30,3.13,0000 0000 0000 0000 000000
2016-01-01 05:20:23,0.24,0.57,0.00,17.42,20.94,24.73,14.87,50.63,1017.83,2059.01,3346.61,3021.45,3389.38,599.92,608.09,3.18,0000 0000 0000 0000 000000
2016-01-01 05:25:24,0.18,0.58,0.00,17.42,20.93,24.79,14.90,50.63,1017.71,2059.01,3342.88,3018.57,3385.96,599.96,608.24,3.23,0000 0000 0000 0000 000000
2016-01-01 05:30:25,0.18,0.59,0.00,17.41,20.92,24.77,14.78,50.42,1017.61,2059.04,3339.28,3015.98,3382.82,599.82,607.99,3.28,0000 0000 0000 0000 000000
2016-01-01 05:35:27,0.18,0.60,0.00,17.42,20.92,24.77,14.94,50.45,1017.60,2059.06,3335.59,3013.28,3379.42,600.18,608.15,3.33,0000 0000 0000 0000 000000
2016-01-01 05:40:28,0.17,0.60,0.00,17.42,20.90,24.81,14.84,50.56,1017.42,2059.12,3332.14,3010.98,3376.57,599.81,607.83,3.38,0000 0000 0000 0000 000000
2016-01-01 05:45:29,0.18,0.61,0.00,17.39,20.89,24.69,14.92,50.83,1017.11,2059.21,3328.62,3008.43,3373.41,600.13,608.03,3.43,0000 0000 0000 0000 000000
2016-01-01 05:50:30,0.17,0.62,0.00,17.36,20.89,24.62,14.85,50.73,1016.94,2059.27,3325.12,3006.09,3370.33,599.88,607.73,3.48,0000 0000 0000 0000 000000
2016-01-01 05:55:31,0.17,0.63,0.00,17.34,20.88,24.56,14.90,50.69,1016.67,2059.41,3321.55,3003.61,3367.35,600.30,607.99,3.53,0000 0000 0000 0000 000000
2016-01-01 06:00:32,0.18,0.64,0.00,17.33,20.87,24.51,14.81,50.81,1016.65,2059.48,3318.10,3001.32,3364.37,599.90,607.59,3.58,0000 0000 0000 0000 000000
2016-01-01 06:05:33,0.20,0.65,0.00,17.31,20.86,24.44,14.85,50.97,1016.62,2059.74,3314.54,2998.84,3361.37,599.90,607.60,3.63,0000 0000 0000 0000 000000
2016-01-01 06:10:35,0.21,0.66,0.00,17.27,20.84,24.48,14.86,50.99,1016.44,2059.94,3310.72,2996.00,3357.89,600.10,607.69,3.68,0000 0000 0000 0000 000000
2016-01-01 06:15:36,0.21,0.67,0.00,17.25,20.84,24.42,14.85,51.06,1016.13,2059.96,3306.68,2993.00,3354.18,599.68,607.23,3.73,0000 0000 0000 0000 000000
2016-01-01 06:20:37,0.29,0.69,0.00,17.21,20.82,24.33,14.84,51.14,1016.06,2059.96,3301.66,2988.59,3349.01,599.88,607.47,3.78,0000 0000 0000 0000 000000
2016-01-01 06:25:38,0.21,0.70,0.00,17.18,20.80,24.35,14.89,51.26,1015.69,2059.98,3297.31,2985.15,3344.85,600.34,607.78,3.84,0000 0000 0000 0000 000000
2016-01-01 06:30:40,0.23,0.71,0.00,17.14,20.78,24.25,14.87,51.31,1015.63,2059.99,3292.98,2981.69,3340.79,599.90,607.43,3.89,0000 0000 0000 0000 000000
2016-01-01 06:35:41,0.25,0.72,0.00,17.09,20.76,24.20,14.92,51.51,1015.62,2059.99,3288.45,2977.86,3336.52,600.17,607.76,3.94,0000 0000 0000 0000 000000
2016-01-01 06:40:42,0.18,0.73,0.00,17.04,20.74,24.22,14.89,51.38,1015.64,2059.99,3284.69,2974.91,3332.95,599.84,607.50,3.99,0000 0000 0000 0000 000000
2016-01-01 06:45:43,0.19,0.74,0.00,16.99,20.72,24.10,14.87,51.42,1015.64,2059.99,3280.94,2972.00,3329.49,600.18,607.93,4.04,0000 0000 0000 0000 000000
2016-01-01 06:50:45,0.22,0.75,0.00,16.94,20.69,24.09,14.82,51.33,1015.63,2060.01,3276.77,2968.92,3325.62,599.85,607.76,4.09,0000 0000 0000 0000 000000
2016-01-01 06:55:46,0.22,0.76,0.00,16.89,20.66,24.08,14.83,51.45,1015.32,2060.02,3272.79,2965.71,3321.76,599.74,607.56,4.14,0000 0000 0000 0000 000000
2016-01-01 07:00:47,0.18,0.77,0.00,16.84,20.63,24.00,14.77,51.40,1015.27,2060.06,3269.14,2963.02,3318.43,599.87,607.78,4.19,0000 0000 0000 0000 000000
2016-01-01 07:05:48,0.20,0.78,0.00,16.79,20.60,24.01,14.83,51.40,1015.39,2060.24,3265.69,2960.43,3315.30,599.94,608.09,4.24,0000 0000 0000 0000 000000
2016-01-01 07:10:50,0.22,0.80,0.00,16.74,20.57,23.90,14.84,51.38,1015.20,2060.76,3262.40,2957.93,3312.21,600.16,608.26,4.29,0000 0000 0000 0000 000000
2016-01-01 07:15:51,0.18,0.81,0.00,16.69,20.54,23.81,14.89,51.38,1015.16,2060.97,3259.07,2955.33,3309.03,599.95,608.13,4.34,0000 0000 0000 0000 000000
2016-01-01 07:20:52,0.21,0.82,0.00,16.65,20.50,23.83,14.92,51.64,1015.17,2060.97,3255.36,2952.48,3305.48,600.12,608.35,4.39,0000 0000 0000 0000 000000
2016-01-01 07:25:53,0.20,0.83,0.00,16.61,20.47,23.79,14.85,51.42,1015.26,2060.99,3251.62,2949.32,3301.80,599.97,608.26,4.44,0000 0000 0000 0000 000000
2016-01-01 07:30:54,0.15,0.84,0.00,16.59,20.43,23.74,14.94,51.51,1015.52,2060.99,3248.56,2946.94,3298.88,600.27,608.81,4.49,0000 0000 0000 0000 000000
2016-01-01 07:35:55,0.13,0.84,0.00,16.57,20.40,23.72,14.85,51.26,1015.81,2061.00,3245.70,2944.96,3296.36,599.87,608.65,4.54,0000 0000 0000 0000 000000
2016-01-01 07:40:57,0.13,0.85,0.00,16.57,20.37,23.70,14.88,51.02,1015.80,2061.04,3243.21,2943.42,3294.17,600.05,608.77,4.59,0000 0000 0000 0000 000000
2016-01-01 07:45:58,0.13,0.86,0.00,16.57,20.33,23.70,14.91,50.92,1015.78,2061.09,3240.57,2941.54,3291.91,600.19,608.87,4.64,0000 0000 0000 0000 000000
2016-01-01 07:50:59,0.17,0.86,0.00,16.57,20.30,23.62,14.88,50.92,1015.71,2061.61,3238.01,2939.88,3289.85,599.92,608.53,4.69,0000 0000 0000 0000 000000
2016-01-01 07:56:01,0.15,0.87,0.00,16.58,20.28,23.56,14.89,50.88,1015.66,2061.92,3235.37,2938.20,3287.76,600.14,608.75,4.74,0000 0000 0000 0000 000000
2016-01-01 08:01:01,0.13,0.88,0.00,16.60,20.25,23.58,14.84,50.84,1015.64,2061.97,3232.57,2936.28,3285.35,599.63,608.24,4.79,0000 0000 0000 0000 000000
2016-01-01 08:06:03,0.13,0.89,0.00,16.62,20.23,23.64,14.90,50.83,1015.57,2061.98,3229.94,2934.44,3283.13,600.12,608.66,4.84,0000 0000 0000 0000 000000
2016-01-01 08:11:04,0.15,0.89,0.00,16.63,20.21,23.88,14.80,50.98,1015.19,2061.99,3227.07,2932.33,3280.65,599.42,607.77,4.89,0000 0000 0000 0000 000000
2016-01-01 08:16:05,0.20,0.90,0.00,16.64,20.19,23.85,14.89,50.79,1015.15,2062.01,3223.65,2929.65,3277.39,599.73,607.98,4.94,0000 0000 0000 0000 000000
2016-01-01 08:21:06,0.18,0.91,0.00,16.66,20.18,23.79,14.88,50.88,1015.09,2062.03,3220.25,2926.89,3274.25,600.21,608.49,4.99,0000 0000 0000 0000 000000
2016-01-01 08:26:08,0.19,0.92,0.00,16.68,20.17,23.82,14.84,50.93,1014.89,2062.05,3216.87,2924.18,3271.05,599.86,607.87,5.04,0000 0000 0000 0000 000000
2016-01-01 08:31:09,0.16,0.93,0.00,16.68,20.15,23.86,14.83,51.03,1014.89,2062.18,3213.84,2922.00,3268.25,599.62,607.66,5.09,0000 0000 0000 0000 000000
2016-01-01 08:36:10,0.16,0.94,0.00,16.69,20.14,23.79,14.97,51.16,1014.94,2062.35,3211.10,2919.98,3265.70,600.31,608.33,5.14,0000 0000 0000 0000 000000
2016-01-01 08:41:12,0.21,0.95,0.00,16.69,20.13,23.85,14.98,51.20,1014.76,2062.79,3208.10,2917.63,3262.96,600.17,607.97,5.19,0000 0000 0000 0000 000000
2016-01-01 08:46:13,0.16,0.96,0.00,16.69,20.12,23.91,14.91,51.15,1014.80,2062.91,3205.06,2915.31,3260.18,600.05,607.97,5.24,0000 0000 0000 0000 000000
2016-01-01 08:51:14,0.16,0.97,0.00,16.69,20.12,23.87,14.89,51.15,1014.63,2062.92,3202.09,2913.02,3257.35,600.26,608.01,5.29,0000 0000 0000 0000 000000
2016-01-01 08:56:16,0.19,0.98,0.00,16.68,20.10,23.87,14.84,51.24,1014.18,2062.97,3198.89,2910.39,3254.03,599.81,607.38,5.34,0000 0000 0000 0000 000000
2016-01-01 09:01:17,0.32,0.99,0.00,16.66,20.09,23.84,14.82,51.68,1013.70,2062.96,3194.40,2906.24,3249.42,599.93,607.36,5.39,0000 0000 0000 0000 000000
2016-01-01 09:06:18,0.23,1.01,0.00,16.63,20.09,23.84,14.91,51.56,1013.67,2062.98,3190.07,2901.87,3244.63,599.91,607.32,5.44,0000 0000 0000 0000 000000
2016-01-01 09:11:19,0.18,1.01,0.00,16.62,20.09,23.81,14.88,51.67,1013.40,2062.99,3186.76,2899.36,3241.57,600.03,607.18,5.49,0000 0000 0000 0000 000000
2016-01-01 09:16:21,0.26,1.03,0.00,16.59,20.07,23.75,14.86,51.75,1013.13,2062.99,3182.42,2895.80,3237.46,600.22,607.36,5.54,0000 0000 0000 0000 000000
2016-01-01 09:21:22,0.29,1.04,0.00,16.57,20.06,23.78,14.87,52.07,1012.75,2062.99,3177.76,2891.51,3232.56,600.07,607.05,5.59,0000 0000 0000 0000 000000
2016-01-01 09:26:23,0.25,1.05,0.00,16.54,20.04,23.61,14.77,51.92,1012.67,2062.99,3173.66,2887.62,3227.91,599.72,606.86,5.64,0000 0000 0000 0000 000000
2016-01-01 09:31:25,0.17,1.06,0.00,16.51,20.04,23.64,14.87,51.88,1012.51,2062.99,3170.58,2884.83,3224.73,600.01,606.94,5.69,0000 0000 0000 0000 000000
2016-01-01 09:36:26,0.17,1.07,0.00,16.48,20.02,23.55,14.82,52.02,1012.25,2062.99,3167.49,2882.31,3221.75,599.88,606.86,5.74,0000 0000 0000 0000 000000
2016-01-01 09:41:27,0.18,1.08,0.00,16.45,20.02,23.54,14.81,51.67,1012.16,2063.00,3164.40,2879.86,3219.01,599.70,606.50,5.79,0000 0000 0000 0000 000000
2016-01-01 09:46:29,0.18,1.09,0.00,16.43,19.99,23.57,14.88,51.98,1011.77,2063.02,3161.36,2877.25,3216.06,599.93,606.52,5.84,0000 0000 0000 0000 000000
2016-01-01 09:51:30,0.16,1.10,0.00,16.40,19.99,23.50,14.81,52.03,1011.48,2063.05,3158.54,2874.72,3213.39,599.96,606.55,5.89,0000 0000 0000 0000 000000
2016-01-01 09:56:31,0.14,1.11,0.00,16.37,19.97,23.44,14.83,52.13,1011.12,2063.13,3155.90,2872.77,3210.95,599.75,606.11,5.94,0000 0000 0000 0000 000000
2016-01-01 10:01:32,0.16,1.11,0.00,16.33,19.96,23.40,14.84,52.48,1010.78,2063.27,3153.32,2870.77,3208.43,600.06,606.22,5.99,0000 0000 0000 0000 000000
2016-01-01 10:06:33,0.16,1.12,0.00,16.27,19.94,23.30,14.85,52.29,1010.76,2063.40,3150.50,2868.53,3205.82,600.11,606.52,6.04,0000 0000 0000 0000 000000
2016-01-01 10:11:35,0.15,1.13,0.00,16.21,19.92,23.22,14.78,52.19,1010.66,2063.62,3148.01,2866.79,3203.46,599.55,605.91,6.09,0000 0000 0000 0000 000000
2016-01-01 10:16:36,0.14,1.14,0.00,16.15,19.90,23.20,14.82,52.39,1010.65,2063.86,3145.49,2865.10,3201.34,599.65,606.24,6.14,0000 0000 0000 0000 000000
2016-01-01 10:21:37,0.16,1.15,0.00,16.09,19.87,23.13,14.89,52.09,1010.75,2063.95,3142.87,2863.02,3198.93,600.28,606.99,6.20,0000 0000 0000 0000 000000
2016-01-01 10:26:38,0.15,1.15,0.00,16.03,19.84,23.10,14.87,52.04,1010.75,2063.98,3140.06,2860.99,3196.52,599.99,606.82,6.25,0000 0000 0000 0000 000000
2016-01-01 10:31:39,0.11,1.16,0.00,15.98,19.81,23.06,14.87,52.13,1010.61,2063.99,3137.61,2859.40,3194.52,600.08,606.80,6.30,0000 0000 0000 0000 000000
2016-01-01 10:36:41,0.15,1.17,0.00,15.93,19.78,23.06,14.84,52.02,1010.75,2063.99,3135.13,2857.38,3192.29,600.42,607.51,6.35,0000 0000 0000 0000 000000
2016-01-01 10:41:42,0.13,1.18,0.00,15.89,19.75,22.94,14.83,52.02,1010.73,2064.01,3132.68,2855.38,3189.92,599.74,606.91,6.40,0000 0000 0000 0000 000000
2016-01-01 10:46:43,0.13,1.18,0.00,15.84,19.71,22.93,14.86,51.95,1010.73,2064.02,3130.23,2853.42,3187.73,599.99,607.24,6.45,0000 0000 0000 0000 000000
2016-01-01 10:51:44,0.14,1.19,0.00,15.80,19.68,22.87,14.72,51.78,1010.76,2064.10,3127.89,2851.72,3185.65,599.95,607.34,6.50,0000 0000 0000 0000 000000
2016-01-01 10:56:45,0.16,1.20,0.00,15.75,19.64,22.77,14.73,51.78,1011.06,2064.52,3125.58,2850.28,3183.79,599.99,607.64,6.55,0000 0000 0000 0000 000000
2016-01-01 11:01:47,0.15,1.20,0.00,15.70,19.60,22.74,14.86,51.85,1011.23,2064.90,3123.21,2848.63,3181.83,600.08,607.93,6.60,0000 0000 0000 0000 000000
2016-01-01 11:06:48,0.13,1.21,0.00,15.68,19.56,22.64,14.90,51.73,1011.24,2064.98,3120.75,2846.76,3179.82,599.98,608.00,6.65,0000 0000 0000 0000 000000
2016-01-01 11:11:50,0.12,1.22,0.00,15.64,19.53,22.49,14.89,51.52,1011.25,2064.99,3118.36,2845.06,3177.72,599.82,607.82,6.70,0000 0000 0000 0000 000000
2016-01-01 11:16:51,0.12,1.23,0.00,15.63,19.49,22.48,14.88,51.58,1011.22,2064.99,3115.91,2843.27,3175.50,599.98,607.98,6.75,0000 0000 0000 0000 000000
2016-01-01 11:21:52,0.17,1.23,0.00,15.63,19.45,22.40,14.86,51.31,1011.03,2065.00,3113.27,2841.34,3173.17,600.27,608.15,6.80,0000 0000 0000 0000 000000
2016-01-01 11:26:54,0.14,1.24,0.00,15.64,19.42,22.44,14.93,51.43,1010.77,2065.02,3110.41,2839.25,3170.54,600.18,607.88,6.85,0000 0000 0000 0000 000000
2016-01-01 11:31:55,0.15,1.25,0.00,15.64,19.39,22.38,14.78,51.45,1010.73,2065.24,3107.87,2837.40,3168.46,600.16,607.84,6.90,0000 0000 0000 0000 000000
2016-01-01 11:36:56,0.17,1.26,0.00,15.62,19.36,22.39,14.91,51.60,1010.42,2065.69,3105.53,2835.47,3166.31,600.27,607.82,6.95,0000 0000 0000 0000 000000
2016-01-01 11:41:57,0.16,1.27,0.00,15.62,19.33,22.36,14.79,51.50,1010.22,2065.95,3103.00,2833.66,3164.16,599.88,607.36,7.00,0000 0000 0000 0000 000000
2016-01-01 11:46:59,0.14,1.27,0.00,15.60,19.31,22.33,14.85,51.58,1009.83,2065.99,3100.50,2831.94,3162.09,599.96,607.18,7.05,0000 0000 0000 0000 000000
2016-01-01 11:52:00,0.14,1.28,0.00,15.59,19.28,22.43,14.79,51.92,1009.70,2065.99,3097.73,2829.96,3159.81,599.60,606.68,7.10,0000 0000 0000 0000 000000
2016-01-01 11:57:02,0.56,1.30,0.00,15.58,19.26,22.43,14.94,52.09,1009.74,2065.99,3092.95,2824.60,3154.30,600.39,607.62,7.15,0000 0000 0000 0000 000000
2016-01-01 12:02:03,0.20,1.32,0.00,15.57,19.24,22.38,14.88,51.94,1009.85,2066.00,3087.21,2817.53,3147.31,600.13,607.43,7.20,0000 0000 0000 0000 000000
2016-01-01 12:07:04,0.09,1.32,0.00,15.55,19.22,22.35,14.94,51.99,1009.80,2066.02,3085.16,2816.91,3145.81,600.04,607.44,7.25,0000 0000 0000 0000 000000
2016-01-01 12:12:06,-0.05,1.33,0.00,15.54,19.20,22.36,14.89,51.79,1009.70,2066.07,3083.95,2816.74,3145.43,599.89,607.11,7.30,0000 0000 0000 0000 000000
2016-01-01 12:17:07,0.04,1.32,0.00,15.54,19.18,22.35,14.90,51.58,1009.53,2066.18,3083.92,2817.85,3146.70,600.18,607.37,7.35,0000 0000 0000 0000 000000
2016-01-01 12:22:08,0.14,1.33,0.00,15.54,19.17,22.32,14.79,51.43,1009.32,2066.61,3082.06,2816.59,3145.20,600.01,607.03,7.40,0000 0000 0000 0000 000000
2016-01-01 12:27:09,0.13,1.34,0.00,15.54,19.14,22.35,14.79,51.83,1009.15,2066.93,3079.89,2815.54,3143.11,599.74,606.57,7.45,0000 0000 0000 0000 000000
2016-01-01 12:32:10,0.13,1.34,0.00,15.54,19.14,22.38,14.89,52.02,1008.81,2066.95,3077.58,2813.79,3140.80,600.03,606.70,7.50,0000 0000 0000 0000 000000
2016-01-01 12:37:11,0.05,1.35,0.00,15.54,19.12,22.35,14.85,52.08,1008.78,2066.97,3075.54,2813.83,3138.98,600.12,606.79,7.55,0000 0000 0000 0000 000000
2016-01-01 12:42:13,0.12,1.35,0.00,15.52,19.12,22.34,14.87,52.16,1008.77,2066.98,3073.27,2812.57,3137.02,599.96,606.69,7.60,0000 0000 0000 0000 000000
2016-01-01 12:47:14,0.10,1.36,0.00,15.51,19.10,22.29,14.88,51.67,1008.57,2066.99,3071.25,2811.17,3135.29,600.11,606.71,7.65,0000 0000 0000 0000 000000
2016-01-01 12:52:16,0.11,1.36,0.00,15.50,19.09,22.32,14.85,51.98,1008.17,2066.99,3069.35,2809.69,3133.75,600.15,606.62,7.70,0000 0000 0000 0000 000000
2016-01-01 12:57:17,0.09,1.37,0.00,15.51,19.08,22.36,14.84,52.27,1007.85,2066.99,3067.51,2808.45,3132.32,600.12,606.32,7.75,0000 0000 0000 0000 000000
2016-01-01 13:02:18,0.11,1.37,0.00,15.50,19.07,22.30,14.82,51.90,1007.78,2066.99,3065.53,2806.89,3130.48,600.07,606.23,7.80,0000 0000 0000 0000 000000